This demonstration page uses our WeatherBlox Daily Observations layout. Learn more.

Left ArrowRight Arrow

41.55636, -103.73856

Hourly Observations for April 12, 2018

Temp ( °F °C ) Dew Point ( °F °C ) Humidity (%) Winds ( mph kmh ) Pressure ( in mb ) Visibility ( mi km ) Precip ( " mm )
12:58 am 00:58 Mostly Cloudy 44 6.4 33 0.8 68 68 E 7 11 29.70 1006 10 16 N/A
1:58 am 01:58 Mostly Cloudy 42 5.5 34 0.9 73 73 ESE 13 20 29.66 1005 10 16 N/A
2:58 am 02:58 Mostly Clear 40 4.4 33 0.7 77 77 ESE 9 15 29.64 1004 10 16 N/A
3:58 am 03:58 Mostly Clear 39 3.7 33 0.7 81 81 ESE 10 17 29.61 1003 10 16 N/A
4:58 am 04:58 Clear 38 3.3 33 0.3 81 81 SSE 8 13 29.59 1002 10 16 N/A
5:58 am 05:58 Clear 38 3.2 33 0.6 83 83 SSE 12 19 29.57 1001 10 16 N/A
6:58 am 06:58 Sunny 37 2.8 33 0.4 84 84 SE 10 17 29.56 1001 10 16 N/A
7:58 am 07:58 Sunny 42 5.6 34 1.2 74 74 SE 16 26 29.58 1002 10 16 N/A
8:59 am 08:59 Sunny 46 7.5 36 2 68 68 SE 22 35 29.55 1001 10 16 N/A
9:58 am 09:58 Sunny 49 9.4 36 2 60 60 SE 21 33 29.57 1001 10 16 N/A
10:58 am 10:58 Sunny 51 10.7 35 1.6 54 54 SE 21 33 29.53 1000 10 16 N/A
11:58 am 11:58 Sunny 53 11.7 35 1.6 50 50 SE 15 24 29.51 999 10 16 N/A
12:58 pm 12:58 Sunny 56 13.1 36 2.2 48 48 SE 20 31 29.43 997 10 16 N/A
1:58 pm 13:58 Sunny 60 15.8 35 1.6 38 38 SE 21 33 29.38 995 10 16 N/A
2:58 pm 14:58 Sunny 62 16.5 35 1.8 37 37 SE 22 35 29.36 994 10 16 N/A
3:58 pm 15:58 Sunny 61 15.9 36 2.4 40 40 SE 21 33 29.34 994 10 16 N/A
4:58 pm 16:58 Sunny 60 15.8 37 2.7 42 42 SE 24 39 29.31 993 10 16 N/A
5:58 pm 17:58 Mostly Cloudy 56 13.3 38 3.1 50 50 E 9 15 29.42 996 10 16 N/A
6:58 pm 18:58 Partly Cloudy 53 11.6 38 3.4 57 57 ESE 7 11 29.44 997 10 16 N/A
7:58 pm 19:58 Mostly Clear 47 8.5 38 3.5 71 71 ENE 9 15 29.45 997 10 16 N/A
8:58 pm 20:58 Mostly Cloudy 46 8 40 4.2 77 77 NNW 13 20 29.47 998 10 16 N/A
9:58 pm 21:58 Cloudy with Showers 45 7.3 33 0.8 64 64 NW 20 31 29.54 1000 10 16 0.03 0.76
10:58 pm 22:58 Cloudy with Showers 41 5 32 0.1 71 71 NNW 26 43 29.54 1001 10 16 0.11 2.79
11:58 pm 23:58 Mostly Cloudy with Light Rain 38 3.6 35 1.4 86 86 NW 31 50 29.54 1000 10 16 0.02 0.51

Powered by AerisWeather